Date,TemperatureHighF,TemperatureAvgF,TemperatureLowF,DewpointHighF,DewpointAvgF,DewpointLowF,HumidityHigh,HumidityAvg,HumidityLow,PressureMaxIn,PressureMinIn,WindSpeedMaxMPH,WindSpeedAvgMPH,GustSpeedMaxMPH,PrecipitationSumIn
2013-1-3,43,33,28,25,23,21,83,69,48,29.92,29.92,2,0,4,1.18
2013-1-4,46,34,25,25,21,18,77,61,38,29.92,29.92,3,0,5,0.00
2013-1-5,49,38,26,37,28,19,92,69,43,29.92,29.92,2,0,8,0.06
2013-1-6,50,42,34,41,34,28,95,75,61,29.92,29.92,6,0,57,0.00
2013-1-7,53,37,27,31,26,21,83,67,40,29.92,29.92,4,0,11,0.00
2013-1-8,62,48,37,45,37,27,77,65,46,29.92,29.92,2,0,8,0.00
2013-1-9,59,55,50,57,52,44,95,90,76,29.92,29.92,1,0,4,0.58
2013-1-10,66,61,58,60,58,55,95,89,82,29.92,29.92,5,0,14,0.02
2013-1-11,70,65,62,64,62,60,96,89,78,29.92,29.92,4,0,11,0.07
2013-1-12,71,67,65,66,63,58,96,88,76,29.92,29.92,4,0,8,0.06
2013-1-13,70,60,40,65,56,37,95,88,77,29.92,29.92,6,0,10,1.10
2013-1-14,40,30,0,37,32,29,91,75,84,29.92,29.92,7,0,10,1.17
2013-1-15,39,36,34,38,34,31,96,91,89,29.92,29.92,2,0,4,2.19
2013-1-16,38,37,36,37,35,33,95,92,89,29.92,29.92,2,0,8,0.39
2013-1-17,41,37,33,37,31,25,94,80,65,29.92,29.92,8,1,11,0.27
2013-1-18,51,39,28,36,29,23,86,69,49,29.92,29.92,2,0,5,0.00
2013-1-19,56,41,0,32,28,24,76,61,34,29.92,29.92,3,0,8,0.00
2013-1-20,47,42,32,37,33,26,88,69,63,29.92,29.92,3,0,14,0.00
2013-1-21,47,44,28,36,31,11,64,60,38,29.92,29.92,4,1,7,0.00
2013-1-22,38,31,14,16,10,-13,61,44,26,29.92,29.92,6,2,49,0.00
2013-1-23,49,42,31,37,24,16,64,49,42,29.92,29.92,4,0,14,0.00
2013-1-24,49,40,33,37,20,10,73,48,30,29.92,29.92,14,2,22,0.00
2013-1-25,45,44,37,26,23,11,48,46,38,29.92,29.92,3,1,11,0.00
2013-1-26,45,45,45,26,26,26,48,48,48,29.92,29.92,2,2,4,0.00
2013-1-27,45,45,45,26,26,26,48,48,48,29.92,29.92,2,2,4,0.00
2013-1-28,45,45,45,26,26,26,48,48,48,29.92,29.92,2,2,4,0.00
2013-1-29,45,45,45,26,26,26,48,48,48,29.92,29.92,2,2,4,0.00
2013-1-30,45,45,45,26,26,26,48,48,48,29.92,29.92,2,2,4,0.00